Radiation Dose at Monitoring Post of Fukushima Daini Nuclear Power Station
Date,Time,MP-1(microSv/h),MP-2(microSv/h),MP-3(microSv/h),MP-4(microSv/h),MP-5(microSv/h),MP-6(microSv/h),MP-7(microSv/h),Wind Direction,Wind Velocity(m/s),Rain
2021/04/09,00:00,0.170,0.153,0.249,0.235,0.234,0.133,0.082,northwest,10.0,Yes
2021/04/09,00:10,0.171,0.152,0.250,0.235,0.234,0.132,0.082,northwest,8.8,No
2021/04/09,00:20,0.171,0.152,0.249,0.236,0.235,0.133,0.082,northwest,8.4,No
2021/04/09,00:30,0.172,0.152,0.248,0.235,0.234,0.134,0.082,northwest,9.6,No
2021/04/09,00:40,0.171,0.151,0.248,0.235,0.234,0.133,0.082,northwest,9.6,No
2021/04/09,00:50,0.171,0.152,0.249,0.235,0.234,0.133,0.082,northwest,8.2,No
2021/04/09,01:00,0.172,0.152,0.249,0.234,0.234,0.133,0.083,northwest,6.6,No
2021/04/09,01:10,0.171,0.153,0.249,0.236,0.233,0.134,0.081,northwest,5.6,No
2021/04/09,01:20,0.172,0.152,0.249,0.235,0.235,0.133,0.083,northwest,6.1,No
2021/04/09,01:30,0.171,0.153,0.247,0.234,0.235,0.133,0.081,northwest,5.8,No
2021/04/09,01:40,0.170,0.153,0.248,0.235,0.234,0.134,0.082,northwest,5.4,No
2021/04/09,01:50,0.170,0.152,0.250,0.236,0.235,0.133,0.082,northwest,4.9,No
2021/04/09,02:00,0.170,0.152,0.249,0.234,0.234,0.133,0.082,north-northwest,5.1,No
2021/04/09,02:10,0.171,0.153,0.248,0.235,0.234,0.133,0.083,north-northwest,3.4,No
2021/04/09,02:20,0.171,0.151,0.248,0.235,0.233,0.133,0.082,north-northwest,3.3,No
2021/04/09,02:30,0.171,0.152,0.249,0.235,0.234,0.133,0.082,northwest,3.1,No
2021/04/09,02:40,0.172,0.152,0.249,0.235,0.235,0.134,0.082,northwest,2.7,No
2021/04/09,02:50,0.171,0.152,0.248,0.235,0.233,0.133,0.083,north-northwest,2.0,No
2021/04/09,03:00,0.171,0.152,0.248,0.236,0.235,0.133,0.082,north-northwest,2.7,No
2021/04/09,03:10,0.171,0.153,0.249,0.235,0.234,0.133,0.082,north-northwest,2.5,No
2021/04/09,03:20,0.172,0.152,0.249,0.235,0.233,0.133,0.083,north-northwest,2.5,No
2021/04/09,03:30,0.172,0.153,0.249,0.234,0.234,0.133,0.083,north-northwest,2.6,No
2021/04/09,03:40,0.170,0.153,0.248,0.234,0.235,0.133,0.083,northwest,6.4,No
2021/04/09,03:50,0.171,0.153,0.250,0.236,0.233,0.134,0.083,northwest,7.9,No
2021/04/09,04:00,0.171,0.152,0.249,0.234,0.235,0.133,0.083,northwest,6.8,No
2021/04/09,04:10,0.171,0.153,0.249,0.235,0.233,0.134,0.082,northwest,6.1,No
2021/04/09,04:20,0.171,0.152,0.248,0.236,0.234,0.133,0.082,northwest,5.2,No
2021/04/09,04:30,0.171,0.152,0.249,0.235,0.234,0.134,0.082,north-northwest,5.4,No
2021/04/09,04:40,0.171,0.151,0.249,0.234,0.234,0.133,0.082,north-northwest,6.5,No
2021/04/09,04:50,0.170,0.153,0.249,0.235,0.234,0.133,0.082,northwest,6.5,No
2021/04/09,05:00,0.171,0.152,0.248,0.234,0.234,0.133,0.082,north-northwest,7.3,No
2021/04/09,05:10,0.171,0.152,0.248,0.234,0.234,0.133,0.083,north-northwest,6.5,No
2021/04/09,05:20,0.171,0.153,0.250,0.235,0.234,0.133,0.082,northwest,6.4,No
2021/04/09,05:30,0.171,0.153,0.249,0.235,0.235,0.133,0.082,northwest,5.7,No
2021/04/09,05:40,0.171,0.152,0.249,0.236,0.235,0.133,0.082,northwest,6.7,No
2021/04/09,05:50,0.171,0.152,0.248,0.235,0.235,0.134,0.082,north-northwest,6.1,No
2021/04/09,06:00,0.171,0.152,0.248,0.234,0.235,0.134,0.083,north-northwest,3.9,No
2021/04/09,06:10,0.171,0.153,0.249,0.234,0.233,0.133,0.082,northwest,4.5,No
2021/04/09,06:20,0.170,0.152,0.249,0.235,0.234,0.132,0.082,northwest,4.7,No
2021/04/09,06:30,0.171,0.152,0.250,0.234,0.235,0.133,0.082,northwest,4.1,No
2021/04/09,06:40,0.170,0.152,0.249,0.234,0.235,0.133,0.081,northwest,4.1,No
2021/04/09,06:50,0.171,0.152,0.250,0.235,0.234,0.134,0.082,north-northwest,4.6,No
2021/04/09,07:00,0.171,0.153,0.249,0.235,0.234,0.133,0.083,northwest,2.4,No
2021/04/09,07:10,0.171,0.151,0.249,0.234,0.234,0.134,0.082,north-northwest,5.1,No
2021/04/09,07:20,0.171,0.152,0.248,0.233,0.234,0.133,0.081,west,4.4,No
2021/04/09,07:30,0.170,0.151,0.249,0.234,0.234,0.133,0.082,west-northwest,6.1,No
2021/04/09,07:40,0.170,0.152,0.248,0.235,0.234,0.134,0.082,west-northwest,4.6,No
2021/04/09,07:50,0.170,0.152,0.247,0.232,0.233,0.133,0.082,northwest,4.0,No
2021/04/09,08:00,0.170,0.151,0.248,0.235,0.234,0.133,0.082,northwest,3.4,No
2021/04/09,08:10,0.171,0.151,0.248,0.233,0.234,0.134,0.082,west,6.7,No
2021/04/09,08:20,0.172,0.151,0.246,0.234,0.233,0.134,0.081,northwest,4.2,No
2021/04/09,08:30,0.169,0.150,0.248,0.233,0.236,0.134,0.081,west-northwest,5.7,No
2021/04/09,08:40,0.171,0.152,0.248,0.233,0.233,0.133,0.082,west-northwest,4.9,No
2021/04/09,08:50,0.170,0.151,0.247,0.233,0.234,0.134,0.082,west-northwest,4.8,No
2021/04/09,09:00,0.170,0.151,0.249,0.233,0.235,0.133,0.082,west,8.1,No
2021/04/09,09:10,0.172,0.151,0.247,0.234,0.233,0.132,0.082,west-northwest,8.4,No
2021/04/09,09:20,0.170,0.152,0.250,0.234,0.235,0.133,0.082,west-northwest,8.9,No
2021/04/09,09:30,0.170,0.152,0.247,0.234,0.234,0.132,0.083,northwest,10.9,No
2021/04/09,09:40,0.170,0.151,0.249,0.233,0.234,0.133,0.082,west-northwest,11.5,No
2021/04/09,09:50,0.171,0.152,0.248,0.235,0.233,0.133,0.082,west-northwest,9.0,No
2021/04/09,10:00,0.171,0.152,0.248,0.235,0.236,0.132,0.082,west-northwest,6.6,No
2021/04/09,10:10,0.170,0.151,0.251,0.234,0.234,0.134,0.082,west-northwest,9.2,No
2021/04/09,10:20,0.171,0.152,0.249,0.234,0.236,0.133,0.082,west,9.0,No
2021/04/09,10:30,0.171,0.151,0.249,0.234,0.234,0.134,0.082,west-northwest,7.2,No
2021/04/09,10:40,0.172,0.153,0.249,0.236,0.235,0.132,0.082,northwest,9.2,No
2021/04/09,10:50,0.171,0.152,0.250,0.234,0.234,0.133,0.083,northwest,10.0,No
2021/04/09,11:00,0.172,0.152,0.251,0.235,0.235,0.133,0.083,west-northwest,7.9,No
2021/04/09,11:10,0.172,0.153,0.251,0.235,0.235,0.134,0.082,west,6.0,No
2021/04/09,11:20,0.171,0.151,0.251,0.236,0.236,0.133,0.083,west-northwest,4.7,No
2021/04/09,11:30,0.171,0.152,0.249,0.234,0.233,0.134,0.082,west-northwest,7.3,No
2021/04/09,11:40,0.171,0.152,0.249,0.237,0.236,0.133,0.082,west-northwest,9.2,No
2021/04/09,11:50,0.171,0.153,0.249,0.235,0.233,0.133,0.082,west-northwest,10.1,No
2021/04/09,12:00,0.172,0.153,0.249,0.237,0.236,0.133,0.082,west-northwest,10.4,No
2021/04/09,12:10,0.171,0.152,0.252,0.234,0.234,0.133,0.083,west,10.6,No
2021/04/09,12:20,0.171,0.152,0.249,0.236,0.236,0.133,0.083,west-northwest,7.4,No
2021/04/09,12:30,0.171,0.151,0.251,0.235,0.234,0.134,0.082,northwest,12.2,No
2021/04/09,12:40,0.171,0.153,0.249,0.236,0.236,0.133,0.083,west-northwest,9.3,No
2021/04/09,12:50,0.170,0.152,0.251,0.235,0.236,0.134,0.082,west-northwest,9.8,No
2021/04/09,13:00,0.172,0.153,0.250,0.238,0.235,0.134,0.082,west,10.3,No
2021/04/09,13:10,0.170,0.151,0.252,0.235,0.234,0.133,0.082,west-northwest,9.8,No
2021/04/09,13:20,0.171,0.152,0.249,0.237,0.235,0.133,0.083,west-northwest,11.4,No
2021/04/09,13:30,0.172,0.153,0.250,0.235,0.236,0.132,0.082,west-northwest,9.0,No
2021/04/09,13:40,0.171,0.152,0.251,0.237,0.234,0.134,0.082,west-northwest,9.8,No
2021/04/09,13:50,0.171,0.152,0.250,0.235,0.237,0.133,0.082,west-northwest,9.8,No
2021/04/09,14:00,0.171,0.151,0.251,0.237,0.234,0.133,0.082,west,9.3,No
2021/04/09,14:10,0.172,0.153,0.250,0.236,0.236,0.134,0.083,west-northwest,8.1,No
2021/04/09,14:20,0.172,0.152,0.252,0.238,0.234,0.134,0.082,west-northwest,11.2,No
2021/04/09,14:30,0.171,0.153,0.251,0.236,0.237,0.134,0.083,west-northwest,7.7,No
2021/04/09,14:40,0.172,0.152,0.251,0.238,0.235,0.134,0.082,west-northwest,9.8,No
2021/04/09,14:50,0.171,0.153,0.252,0.235,0.236,0.134,0.082,west-northwest,8.6,No
2021/04/09,15:00,0.171,0.153,0.252,0.238,0.235,0.134,0.082,northwest,7.5,No
2021/04/09,15:10,0.171,0.152,0.251,0.237,0.236,0.134,0.082,west-northwest,8.3,No
2021/04/09,15:20,0.172,0.154,0.252,0.237,0.234,0.133,0.083,west-northwest,9.2,No
2021/04/09,15:30,0.173,0.153,0.253,0.237,0.235,0.134,0.082,west-northwest,10.0,No
2021/04/09,15:40,0.172,0.153,0.252,0.237,0.235,0.133,0.082,west-northwest,9.3,No
2021/04/09,15:50,0.171,0.153,0.253,0.238,0.236,0.135,0.083,northwest,7.9,No
2021/04/09,16:00,0.172,0.154,0.254,0.237,0.235,0.134,0.083,north,8.6,No
2021/04/09,16:10,0.172,0.153,0.252,0.237,0.236,0.134,0.083,north-northwest,8.1,No
2021/04/09,16:20,0.172,0.154,0.253,0.238,0.235,0.134,0.083,north-northwest,8.1,No
2021/04/09,16:30,0.172,0.153,0.253,0.237,0.237,0.134,0.083,north-northwest,7.5,No
2021/04/09,16:40,0.173,0.153,0.253,0.237,0.236,0.135,0.082,north-northwest,4.8,No
2021/04/09,16:50,0.172,0.154,0.252,0.238,0.237,0.135,0.083,north-northwest,7.3,No
2021/04/09,17:00,0.173,0.154,0.251,0.238,0.235,0.135,0.083,north-northwest,6.2,No
2021/04/09,17:10,0.172,0.153,0.253,0.238,0.236,0.134,0.083,north-northwest,6.4,No
2021/04/09,17:20,0.173,0.154,0.253,0.237,0.239,0.135,0.082,north-northwest,7.3,No
2021/04/09,17:30,0.173,0.152,0.252,0.239,0.236,0.134,0.083,north-northwest,8.2,No
2021/04/09,17:40,0.173,0.154,0.253,0.238,0.236,0.135,0.083,north-northwest,6.0,No
2021/04/09,17:50,0.172,0.152,0.252,0.237,0.236,0.135,0.082,northwest,5.5,No
2021/04/09,18:00,0.173,0.154,0.253,0.237,0.236,0.134,0.083,northwest,4.9,No
2021/04/09,18:10,0.173,0.154,0.252,0.238,0.235,0.135,0.082,northwest,6.6,No
2021/04/09,18:20,0.173,0.153,0.252,0.238,0.235,0.135,0.082,northwest,6.7,No
2021/04/09,18:30,0.172,0.154,0.253,0.238,0.236,0.135,0.083,northwest,5.7,No
2021/04/09,18:40,0.172,0.154,0.253,0.237,0.236,0.134,0.083,northwest,6.2,No
2021/04/09,18:50,0.172,0.153,0.253,0.237,0.235,0.134,0.083,northwest,8.8,No
2021/04/09,19:00,0.172,0.152,0.253,0.238,0.237,0.134,0.082,northwest,9.5,No
2021/04/09,19:10,0.172,0.154,0.251,0.237,0.236,0.134,0.082,west-northwest,10.1,No
2021/04/09,19:20,0.172,0.154,0.252,0.238,0.235,0.135,0.083,northwest,10.0,No
2021/04/09,19:30,0.173,0.153,0.253,0.238,0.235,0.135,0.082,west-northwest,7.5,No
2021/04/09,19:40,0.173,0.154,0.254,0.238,0.236,0.135,0.082,northwest,8.3,No
2021/04/09,19:50,0.173,0.153,0.252,0.237,0.236,0.134,0.082,northwest,7.7,No
2021/04/09,20:00,0.172,0.154,0.251,0.238,0.236,0.135,0.083,northwest,7.8,No
2021/04/09,20:10,0.173,0.153,0.253,0.237,0.236,0.134,0.082,northwest,7.8,No
2021/04/09,20:20,0.173,0.153,0.253,0.238,0.236,0.135,0.083,northwest,8.3,No
2021/04/09,20:30,0.173,0.154,0.253,0.238,0.236,0.134,0.082,northwest,8.5,No
2021/04/09,20:40,0.173,0.154,0.253,0.237,0.235,0.134,0.083,northwest,10.0,No
2021/04/09,20:50,0.172,0.153,0.252,0.239,0.236,0.135,0.082,northwest,10.7,No
2021/04/09,21:00,0.172,0.153,0.252,0.238,0.237,0.135,0.083,northwest,10.9,No
2021/04/09,21:10,0.173,0.153,0.252,0.238,0.237,0.134,0.083,northwest,11.2,No
2021/04/09,21:20,0.173,0.155,0.252,0.239,0.237,0.135,0.082,northwest,11.7,No
2021/04/09,21:30,0.172,0.153,0.253,0.238,0.235,0.134,0.083,northwest,11.2,No
2021/04/09,21:40,0.172,0.153,0.253,0.238,0.236,0.134,0.083,northwest,12.0,No
2021/04/09,21:50,0.172,0.153,0.254,0.238,0.236,0.134,0.083,northwest,11.5,No
2021/04/09,22:00,0.172,0.153,0.253,0.237,0.236,0.134,0.083,northwest,10.9,No
2021/04/09,22:10,0.173,0.154,0.253,0.238,0.236,0.134,0.083,northwest,12.9,No
2021/04/09,22:20,0.172,0.153,0.252,0.237,0.236,0.135,0.083,northwest,14.0,No
2021/04/09,22:30,0.173,0.154,0.252,0.238,0.235,0.135,0.083,west-northwest,12.0,No
2021/04/09,22:40,0.173,0.153,0.252,0.236,0.235,0.135,0.082,west-northwest,15.1,No
2021/04/09,22:50,0.174,0.154,0.253,0.238,0.236,0.135,0.083,west-northwest,11.8,No
2021/04/09,23:00,0.173,0.154,0.252,0.238,0.236,0.134,0.083,west-northwest,9.8,No
2021/04/09,23:10,0.174,0.154,0.254,0.238,0.235,0.136,0.083,north-northwest,4.4,No
2021/04/09,23:20,0.174,0.154,0.253,0.238,0.236,0.134,0.082,west-northwest,1.4,No
2021/04/09,23:30,0.174,0.154,0.254,0.238,0.237,0.134,0.082,north-northwest,3.3,No
2021/04/09,23:40,0.173,0.154,0.254,0.239,0.236,0.135,0.083,northwest,5.9,No
2021/04/09,23:50,0.173,0.153,0.253,0.238,0.236,0.134,0.083,northwest,1.1,No
